{"data":{"norad_id":40025,"epoch":"2026-09-20T00:20:13.530336Z","epoch_age_seconds":56634,"freshness":"FRESH","line1":"1 40025U 14033R   26263.01404549  .00004872  00000+0  23303-3 0  9992","line2":"2 40025  98.0973 280.9069 0006905 257.7849 102.2611 15.19503230667422","mean_motion":15.1950323,"eccentricity":0.0006905,"inclination_deg":98.0973,"raan_deg":280.9069,"arg_perigee_deg":257.7849,"mean_anomaly_deg":102.2611,"bstar":0.00023303,"rev_number":66742,"period_min":94.767814346798,"perigee_km":502.58649177135,"apogee_km":512.09533677096,"semimajor_km":6885.4779142712,"source":"CELESTRAK","updated_at":"2026-09-20T09:00:48.024825Z"}}